This demonstration page uses our WeatherBlox Daily Observations layout. Learn more.

Left ArrowRight Arrow

36.17497, -115.13722

Hourly Observations for June 1, 2019

Temp ( °F °C ) Dew Point ( °F °C ) Humidity (%) Winds ( mph kmh ) Pressure ( in mb ) Visibility ( mi km ) Precip ( " mm )
12:53 am 00:53 Clear 77 25 37 2.8 24 24 NNW 7 11 29.77 1008 10 16 0.00 0.00
1:53 am 01:53 Clear 75 23.9 36 2.2 24 24 NNW 8 13 29.76 1008 10 16 0.00 0.00
2:53 am 02:53 Clear 75 23.9 38 3.3 26 26 N 12 19 29.75 1007 10 16 0.00 0.00
3:53 am 03:53 Clear 73 22.8 39 3.9 29 29 N 12 19 29.75 1008 10 16 0.00 0.00
4:53 am 04:53 Clear 73 22.8 40 4.4 30 30 N 9 15 29.75 1008 10 16 0.00 0.00
5:53 am 05:53 Sunny 70 21.1 41 5 35 35 N 10 17 29.78 1008 10 16 0.00 0.00
6:53 am 06:53 Sunny 73 22.8 42 5.6 33 33 N 12 19 29.79 1009 10 16 0.00 0.00
7:53 am 07:53 Sunny 76 24.4 43 6.1 31 31 N 10 17 29.81 1010 10 16 0.00 0.00
8:53 am 08:53 Sunny 78 25.6 42 5.6 28 28 Calm 29.83 1010 10 16 0.00 0.00
9:53 am 09:53 Sunny 81 27.2 39 3.9 22 22 ESE 12 19 29.82 1010 10 16 0.00 0.00
10:53 am 10:53 Sunny 83 28.3 36 2.2 19 19 VRB 7 11 29.82 1010 10 16 0.00 0.00
11:53 am 11:53 Sunny 84 28.9 33 0.6 16 16 ENE 5 7 29.82 1010 10 16 0.00 0.00
12:53 pm 12:53 Sunny 87 30.6 29 -1.7 12 12 ESE 12 19 29.79 1009 10 16 0.00 0.00
1:53 pm 13:53 Sunny 88 31.1 25 -3.9 10 10 SE 15 24 29.77 1008 10 16 0.00 0.00
2:26 pm 14:26 Sunny 88 31.1 22 -5.6 9 9 SSE 9 15 29.62 1003 10 16 0.00 0.00
2:53 pm 14:53 Sunny 89 31.7 18 -7.8 7 7 SSW 13 20 29.74 1007 10 16 0.00 0.00
3:53 pm 15:53 Sunny 89 31.7 19 -7.2 7 7 undefined N/A 29.72 1007 10 16 0.00 0.00
4:53 pm 16:53 Sunny 88 31.1 21 -6.1 8 8 W 7 11 29.71 1006 10 16 0.00 0.00
5:53 pm 17:53 Sunny 88 31.1 22 -5.6 9 9 SE 6 9 29.70 1006 10 16 0.00 0.00
6:53 pm 18:53 Sunny 88 31.1 23 -5 9 9 Calm 29.69 1006 10 16 0.00 0.00
7:53 pm 19:53 Clear 85 29.4 25 -3.9 11 11 SE 5 7 29.70 1006 10 16 0.00 0.00
8:53 pm 20:53 Clear 83 28.3 28 -2.2 13 13 S 8 13 29.71 1006 10 16 0.00 0.00
9:53 pm 21:53 Clear 83 28.3 27 -2.8 13 13 S 8 13 29.73 1007 10 16 0.00 0.00
10:53 pm 22:53 Clear 80 26.7 36 2.2 20 20 N 12 19 29.75 1007 10 16 0.00 0.00
11:53 pm 23:53 Clear 76 24.4 40 4.4 27 27 NNW 13 20 29.75 1008 10 16 0.00 0.00

Powered by AerisWeather